Monroe County Airport Bloomington US
ICAO: KBMG
IATA: BMG
Category: Medium
Scheduled Services: No

Elevation: 846 ft
TransAlt. 18000 ft.

Airport Communications:
HULMAN APP/DEP:128.05
ASOS:110.2
CTAF:120.775
GND:121.9
TERRE HAUTE RDO:110.2
BLOOMINGTON TWR:120.775
UNICOM:122.95

KBMG Zoom In..

If you have problems with the map follow the link
https://www.worldairports.se/pages/airport.php?
ICAO=KBMG

Runways:

(A) RW 06 length 3798 ft width 100 ft
---- / hdg 64

(B) RW 17 length 6500 ft width 150 ft
---- / hdg 174

(C) RW 24 length 3798 ft width 100 ft
---- / hdg 244

(D) RW 35 length 6500 ft width 150 ft
ILS 108.30 / hdg 354

Location; KBMG
Day. 16 / Time. 03.13 Zulu
* Altimeter: 30.01
* Temperature: -01° c. -30.2°f.
* Wind from: 230° Speed 09 kn.
Dewpoint: -02° c.
Visibility: 9 Statute Miles.
Clouds: Overcast 1000 ft.

KBMG 160313Z AUTO 23009KT 9SM OVC010 M01/M02 A3001 RMK AO2 T10111017


Wind From 230°
Speed 09 kn.

 
 
jpsmedia.com for Web Design worldairports.se 2018   terms of use